Regional Weather Roundup
Issued by NWS Grand Forks, ND

Home | Current Version | Previous Version | Text Only | Print | Product List | Glossary On
Versions: 1 2 3 4 5 6 7 8 9 10 11 12 13 14 15 16 17 18 19 20 21 22 23 24 25 26 27 28 29 30 31 32 33 34 35 36 37 38 39 40 41 42 43 44 45 46 47 48 49 50
000
ASUS43 KFGF 300710
RWRFGF
PRAIRIE TO PINES  WEATHER ROUNDUP
NATIONAL WEATHER SERVICE EASTERN NORTH DAKOTA/GRAND FORKS ND
200 AM CDT MON MAR 30 2015

 **SATELLITE DATA USED TO AUGMENT SKY COVER AT AUTOMATED STATIONS**
 *****  WEATHER ACROSS EASTERN NORTH DAKOTA  *****

CITY           SKY/WX    TMP DP  RH WIND       PRES   REMARKS
GRAND FORKS    CLEAR     32  27  81 W9        29.89F WCI  24
GRAND FRKS AFB NOT AVBL
GRAND FRKS NWS   N/A     32 N/A N/A W5          N/A
DEVILS LAKE    CLOUDY    34  28  80 CALM      29.89S
FARGO          CLEAR     35  26  69 SW6       29.92F
WAHPETON ARPT  SUNNY     32  28  86 W3        29.94F
$$

 ***** WEATHER ACROSS CENTRAL AND WESTERN NORTH DAKOTA  *****

CITY           SKY/WX    TMP DP  RH WIND       PRES   REMARKS
BISMARCK       PTCLDY    38  30  73 CALM      29.92F
MINOT          PTCLDY    39  31  72 S6        29.85F
JAMESTOWN      PTCLDY    31  28  89 S3        29.91S
MINOT AFB      PTCLDY    37  35  92 S6        29.84F
GARRISON         N/A     36  30  79 S7        29.87F
WILLISTON      CLOUDY    45  34  65 SW9       29.85F
DICKINSON      CLEAR     38  28  67 SW6       29.91S
HETTINGER      CLEAR     32  26  78 CALM      29.97S
$$

 *****  OTHER AIRPORT OBSERVATIONS IN OUR AREA  *****

CITY           SKY/WX    TMP DP  RH WIND       PRES   REMARKS
WALHALLA         N/A     36  28  75 CALM      29.87F
GRAFTON AIRPOR NOT AVBL
VALLEY CITY AR FAIR      32  32 100 S3        29.92S
CANDO          NOT AVBL
CAVALIER APRT  FAIR      34  28  80 NW5       29.87F
GWINNER          N/A     36  32  87 W8          N/A
SHEYENNE NWR     N/A     34  29  80 W2        29.95S
ROLLA          CLOUDY    32  32 100 SW3       29.87F
 ***** THE ABOVE OBSERVATIONS ARE NON NWS ARE NOT QUALITY
       CONTROLLED AND MAY MIS-REPORT RAIN FOR SNOW...
$$

  *****  WEATHER ACROSS NORTHERN MINNESOTA  *****

CITY           SKY/WX    TMP DP  RH WIND       PRES   REMARKS
FLAG ISLAND    CLEAR     36  25  64 W7        29.83S
WARROAD        CLEAR     34  28  80 W5        29.85S
ROSEAU         CLEAR     37  30  75 W7        29.85S
HALLOCK        CLEAR     34  30  86 CALM      29.87S
THF RVR FALLS  CLEAR     34  28  80 W3        29.89S
BAUDETTE       CLEAR     33  24  69 W6        29.84R
WASKISH        PTCLDY    34  28  80 CALM      29.86R
CROOKSTON      CLEAR     30  27  86 W3        29.90F
STEPHEN NDAWN    N/A     34  28  80 SW3         N/A
GREENBUSH NDAW   N/A     32  30  93 SW5         N/A
$$
  *****  WEATHER ACROSS CENTRAL AND WEST MINNESOTA  *****

CITY           SKY/WX    TMP DP  RH WIND       PRES   REMARKS
FOSSTON        CLEAR     27  23  86 CALM      29.90S
BEMIDJI        FAIR      31  26  81 W5        29.88S
PARK RAPIDS    CLEAR     30  24  78 W6        29.90R WCI  24
ELBOW LAKE     FAIR      32  27  81 SW6       29.95S
WADENA         CLEAR     36  27  69 CALM      29.92S
DETROIT LAKES  CLEAR     41  30  65 W7        29.92F
MOORHEAD       CLEAR     37  30  75 W5        29.93S
FERGUS FALLS   CLEAR     36  27  69 CALM      29.96S
MORRIS MN      FAIR      36  27  69 NW3       29.95S
STAPLES        CLEAR     32  27  80 W5        29.92S
$$
  *****  WEATHER ELSEWHERE ACROSS MINNESOTA  *****

CITY           SKY/WX    TMP DP  RH WIND       PRES   REMARKS
DULUTH         CLEAR     37  25  61 W13       29.83R
INTRNTL FALLS  CLEAR     33  24  69 W7        29.82R
ELY            CLEAR     34  25  69 W8        29.78R
CLOQUET        CLEAR     36  25  64 W9        29.85R
WHEATON        CLEAR     36  27  69 W3        29.97S
BRAINERD       PTCLDY    30  24  78 SW7       29.91R WCI  23
HIBBING        CLEAR     37  24  59 W8        29.83R
ALEXANDRIA     CLEAR     34  26  72 SW7       29.95R
SAINT CLOUD    CLOUDY    36  27  69 SW6       29.94R
MINNEAPOLIS    CLOUDY    41  28  60 SW5       29.96S
$$

  *****  WEATHER ACROSS SOUTH DAKOTA  *****

CITY           SKY/WX    TMP DP  RH WIND       PRES   REMARKS
SIOUX FALLS    MOCLDY    35  22  58 CALM      30.04S
BROOKINGS      NOT AVBL
WATERTOWN      PTCLDY    31  25  78 S5        29.99F
HURON          CLOUDY    39  24  55 SW6       30.01F
SISSETON         N/A     41  28  60 W6        29.94F
ABERDEEN       MOCLDY    34  26  72 SW5       29.97F
MITCHELL       MOCLDY    43  24  47 SW5       30.03F
PIERRE         MOCLDY    46  29  51 CALM      29.98F
MOBRIDGE       CLOUDY    42  32  67 SE10      29.94F
RAPID CITY     CLEAR     44  27  51 SW3       30.01F
$$

  *****  SOME WEATHER IN NEARBY STATES *****

CITY           SKY/WX    TMP DP  RH WIND       PRES   REMARKS
GLASGOW MT     PTCLDY    46  31  55 W15       29.88S
GREAT FALLS MT CLOUDY    51  30  44 SW20      30.03R
CHEYENNE WY    PTCLDY    42  23  46 SW10      30.15F
SCOTTSBLUFF NE PTCLDY    43  24  47 E5        30.09S
OMAHA NE       PTCLDY    40  28  62 SE6       30.11S
DES MOINES IA  CLEAR     43  23  45 W3        30.10S
DAVENPORT IA   CLEAR     33  27  78 W10       30.05R WCI  25
CHICAGO IL     PTCLDY    38  30  73 NW6       29.95R
EAU CLAIRE WI  CLEAR     35  25  66 SW8       29.92S
LA CROSSE WI   CLEAR     35  27  72 CALM      29.96S
$$

  *****  SOME NATIONAL WEATHER *****

CITY           SKY/WX    TMP DP  RH WIND       PRES   REMARKS
LA GUARDIA NY  MOCLDY    39  10  30 S12       30.05F
RALEIGH NC     MOCLDY    42  17  36 SW14      30.15F
ATLANTA GA     PTCLDY    50  29  44 S10       30.17F
NEW ORLEANS LA CLEAR     64  61  90 S7        30.17F
OKLAHOMA CITY  CLEAR     53  41  63 N7        30.17S
ALBUQUERQUE NM PTCLDY    60  24  25 E25G37    30.21S
SALT LAKE CITY CLEAR     48  26  42 N3        30.19S
LOS ANGELES CA MOCLDY    60  58  92 W3        30.03S
BOISE ID       PTCLDY    48  31  51 SE8       30.16F
SEATTLE WA     CLOUDY    54  49  83 S5        30.16F
$$

*** WEATHER ACROSS MANITOBA...SASKATCHEWAN AND ONTARIO ***
                ***ONTARIO***

CITY           SKY/WX    TMP DP  RH WIND       PRES   REMARKS
GERALDTON      LGT SNOW  30  27  86 NW10      29.58R DRFTSNOWWCI  21
THUNDER BAY    MOCLDY    34  28  80 NW9       29.72R
SIOUX LOOKOUT  MOCLDY    27  25  93 NW6       29.77R WCI  20
TORONTO        LGT RAIN  37  34  87 SW21G26   29.59F
BIG TROUT LK   PTCLDY     3   0  85 N5        29.82R WCI  -6
PICKLE LAKE    NOT AVBL
DRYDEN         CLEAR     30  27  86 NW7       29.79R WCI  23
KENORA         CLEAR     34  25  69 NW7       29.82R
$$
                *** MANITOBA***

CITY           SKY/WX    TMP DP  RH WIND       PRES   REMARKS
BRANDON        CLOUDY    32  30  93 SW5       29.85F
DAUPHIN        CLEAR     37  25  60 SW9       29.82S
ISLAND LAKE    MOCLDY    12   9  85 NE3       29.87S
PILOT MOUND      N/A     30  28  93 SW3         N/A
THE PAS        CLOUDY    30  23  74 SE5       29.75F
THOMPSON       CLEAR     10   9  92 E5        29.85R WCI   2
WINNIPEG       PTCLDY    30  27  86 W8        29.85S WCI  23
LYNN LAKE      CLEAR     19  18  93 SE6       29.73F WCI  11
CHURCHILL      PTCLDY    -2  -6  84 W7        29.95F WCI -16
GILLAM         CLEAR     -4  -8  84 CALM      29.91S
$$
                ***SASKATCHEWAN***

CITY           SKY/WX    TMP DP  RH WIND       PRES   REMARKS
ESTEVAN        CLOUDY    36  32  87 S7        29.80F
KINDERSLEY     PTCLDY    41  34  75 W3        29.78R
LLOYDMINSTER   CLEAR     34  30  86 W10       29.79R
PRINCE ALBERT  MOCLDY    39  34  81 N3        29.73F
REGINA         PTCLDY    39  36  87 SE8       29.76F
YORKTON        LGT RAIN  39  34  81 SW8       29.82R
N. BATTLEFORD  MOCLDY    41  36  81 VRB2      29.78R
LA RONGE       MOCLDY    36  27  69 NE2       29.68F
SASKATOON      CLOUDY    43  36  75 E5        29.77R
SWIFT CURRENT  CLEAR     46  34  61 W22G28    29.76R
$$
NOTE: THESE ARE AUTOMATED STATIONS WITH LIMITED QUALITY CONTROL
      "FAIR" INDICATES FEW OR NO CLOUDS BELOW 12,000 FEET WITH NO
      SIGNIFICANT WEATHER AND/OR OBSTRUCTIONS TO VISIBILITY.
      SKY/WX - SKY CONDITION AND SIGNIFICANT WEATHER.
      TMP - AIR TEMPERATURE.    DP   - DEWPOINT TEMPERATURE.
      RH  - RELATIVE HUMIDITY.  PRES - PRESSURE.
      HX  - HEAT INDEX.         WCI  - WIND CHILL INDEX.
$


USA.gov is the U.S. government's official web portal to all federal, state and local government web resources and services.